This demonstration page uses our WeatherBlox Daily Observations layout. Learn more.

Left ArrowRight Arrow

Hourly Observations for October 4, 2019

Temp ( °F °C ) Dew Point ( °F °C ) Humidity (%) Winds ( mph kmh ) Pressure ( in mb ) Visibility ( mi km ) Precip ( " mm )
12:53 am 00:53 Clear 63 17.2 54 12.2 73 73 N 8 13 30.14 1021 10 16 0.00 0.00
1:53 am 01:53 Clear 61 16.1 54 12.2 78 78 N 9 15 30.17 1022 10 16 0.00 0.00
2:53 am 02:53 Clear 60 15.6 51 10.6 72 72 N 8 13 30.19 1022 10 16 0.00 0.00
3:53 am 03:53 Clear 58 14.4 49 9.4 72 72 NNE 5 7 30.21 1023 10 16 0.00 0.00
4:53 am 04:53 Clear 56 13.3 47 8.3 72 72 NNE 5 7 30.23 1024 10 16 0.00 0.00
5:53 am 05:53 Clear 51 10.6 47 8.3 86 86 Calm 30.24 1024 10 16 0.00 0.00
6:53 am 06:53 Clear 48 8.9 46 7.8 93 93 Calm 30.27 1025 10 16 0.00 0.00
7:53 am 07:53 Sunny 47 8.3 46 7.8 97 97 Calm 30.29 1026 10 16 0.00 0.00
8:53 am 08:53 Sunny 55 12.8 47 8.3 74 74 VRB 3 6 30.30 1026 10 16 0.00 0.00
9:53 am 09:53 Sunny 58 14.4 48 8.9 70 70 N 12 19 30.31 1026 10 16 0.00 0.00
10:53 am 10:53 Sunny 60 15.6 45 7.2 58 58 NNE 12 19 30.32 1027 10 16 0.00 0.00
11:53 am 11:53 Mostly Sunny 64 17.8 45 7.2 50 50 ENE 12 19 30.31 1026 10 16 0.00 0.00
12:53 pm 12:53 Mostly Sunny 66 18.9 45 7.2 47 47 VRB 7 11 30.30 1026 10 16 0.00 0.00
1:53 pm 13:53 Sunny 67 19.4 44 6.7 44 44 NNE 8 13 30.29 1026 10 16 0.00 0.00
2:53 pm 14:53 Sunny 68 20 44 6.7 42 42 E 8 13 30.26 1025 10 16 0.00 0.00
3:53 pm 15:53 Sunny 70 21.1 45 7.2 41 41 NNE 10 17 30.25 1024 10 16 0.00 0.00
4:53 pm 16:53 Sunny 71 21.7 45 7.2 39 39 NNE 10 17 30.24 1024 10 16 0.00 0.00
5:53 pm 17:53 Sunny 69 20.6 44 6.7 41 41 N 8 13 30.24 1024 10 16 0.00 0.00
6:53 pm 18:53 Sunny 65 18.3 45 7.2 49 49 NNE 9 15 30.26 1025 10 16 0.00 0.00
7:53 pm 19:53 Clear 62 16.7 45 7.2 54 54 NE 8 13 30.27 1025 10 16 0.00 0.00
8:53 pm 20:53 Clear 59 15 45 7.2 60 60 NNE 6 9 30.27 1025 10 16 0.00 0.00
9:53 pm 21:53 Clear 57 13.9 45 7.2 64 64 NNE 6 9 30.28 1025 10 16 0.00 0.00
10:53 pm 22:53 Clear 53 11.7 47 8.3 80 80 Calm 30.29 1026 10 16 0.00 0.00
11:53 pm 23:53 Clear 56 13.3 47 8.3 72 72 ENE 7 11 30.29 1026 10 16 0.00 0.00

Powered by AerisWeather